Theta_e
350 348 346 344 344 343 344 346 352 354 353 352 351 347 342 339 336 334 325 325 325 324
349 348 346 346 345 345 345 347 351 353 354 354 354 350 347 343 339 339 335 332 329 330
349 352 349 348 346 346 347 348 348 353 354 355 355 353 350 347 345 343 340 341 338 337
348 352 349 349 348 348 348 349 350 351 353 354 354 353 351 350 350 348 345 343 342 341
347 351 351 348 352 351 347 348 352 351 354 353 353 354 352 351 352 349 348 347 345 345
345 347 350 350 348 351 352 348 352 352 352 353 352 352 353 354 352 351 351 350 347 347
345 345 347 349 349 348 350 352 350 351 351 351 353 354 353 354 353 352 352 351 351 350
347 347 346 345 346 348 347 350 352 351 351 351 351 353 353 353 352 352 352 352 353 352
348 348 347 346 345 344 345 345 346 350 352 351 354 341 337 347 352 352 352 351 352 351
348 349 349 349 348 346 345 344 343 345 348 350 352 338 334 337 350 351 350 350 351 351
349 349 350 351 349 349 349 347 345 345 346 347 349 335 332 334 345 349 350 351 350 347
349 348 349 349 350 351 350 349 349 348 346 346 347 331 328 330 344 345 346 349 346 347
336 342 348 349 350 351 351 349 350 349 350 342 347 331 325 328 346 346 346 347 347 334
335 337 345 348 350 350 350 350 348 348 349 350 346 346 323 321 344 346 346 347 347 349
Wind_Speed
6 5 5 7 4 4 4 4 4 5 5 5 6 5 4 2 2 3 3 4 4 3
6 5 7 8 5 5 4 4 5 6 6 5 5 6 6 4 4 3 3 5 5 3
9 7 6 7 8 6 6 5 6 6 7 6 5 5 5 4 4 5 4 3 5 4
9 8 6 6 6 7 5 6 6 7 7 7 6 6 5 5 5 6 5 5 6 6
8 10 8 7 7 7 7 6 6 7 7 7 7 7 7 7 6 6 6 7 6 7
8 9 11 9 7 7 7 7 6 6 8 8 7 7 8 8 8 7 7 7 6 7
12 11 12 11 9 8 8 7 7 7 7 8 8 9 9 8 8 8 8 8 8 8
13 13 12 11 11 11 8 9 9 7 7 7 8 8 9 8 9 9 9 8 8 9
10 11 12 11 10 9 12 11 7 10 11 9 9 12 14 11 9 9 9 10 9 8
12 12 13 13 10 11 12 10 10 11 10 12 13 13 14 15 10 8 8 10 10 9
12 14 14 13 13 13 11 12 12 12 12 12 12 14 16 16 11 10 11 11 10 9
10 13 13 14 15 15 11 12 13 12 13 14 15 16 17 11 9 10 12 11 9 11
6 5 12 15 16 14 13 14 11 13 13 14 15 14 16 12 8 11 10 11 12 16
7 6 7 11 12 12 13 12 12 13 12 13 13 14 15 15 11 10 10 10 10 10
Wind_Direction
194 181 182 201 184 209 184 194 184 188 201 191 175 177 183 180 192 181 188 200 213 204
186 197 195 191 202 203 183 184 195 193 200 208 196 190 180 193 206 180 210 224 222 219
179 192 210 192 190 200 204 204 205 202 193 201 204 206 198 210 211 205 227 230 232 238
181 188 195 203 192 196 199 208 220 216 203 193 201 207 210 221 225 224 237 232 231 252
187 189 198 204 200 187 203 211 217 211 203 199 199 201 209 223 226 223 234 239 233 246
197 190 206 206 205 192 189 206 214 209 209 200 206 211 217 216 223 225 229 233 232 241
203 204 210 211 209 203 198 200 208 213 217 216 214 214 220 221 227 231 238 236 231 233
210 209 214 212 211 215 203 210 213 205 214 219 221 225 224 222 226 232 240 238 236 233
215 212 212 219 215 217 221 224 202 214 218 217 230 228 221 220 226 229 236 252 252 240
211 213 216 218 213 212 220 219 218 222 217 225 229 225 227 222 236 238 233 242 254 263
204 212 218 213 217 221 219 214 218 226 221 228 236 223 225 224 229 239 245 246 243 243
223 217 215 217 220 222 219 222 223 221 222 223 237 226 224 212 224 238 248 249 244 245
277 291 232 222 222 223 221 228 228 228 224 223 234 228 223 206 228 238 243 249 247 233
283 269 264 247 236 229 225 227 229 235 232 228 222 237 222 212 218 231 243 244 253 251